Location: Caltech
(34.1382°N, 118.1253°W)
Time: 14:46:24
(UTC-08:00)

Cosmos 2360 Rocket - Visible Passes

Search period start: 25 February 2017 00:00
Search period end: 07 March 2017 00:00
Orbit: 834 x 845 km, 71.0° (Epoch: 24 February)

Date Brightness Start Highest point End Pass type
(mag) Time Alt. Az. Time Alt. Az. Time Alt. Az.
25 Feb 2.2 18:32:40 10° NNW 18:38:19 66° ENE 18:43:56 10° SSE visible
25 Feb 5.0 20:19:06 10° WNW 20:21:37 13° W 20:24:10 10° SW visible
26 Feb 2.2 18:17:01 10° NNW 18:22:38 62° ENE 18:28:13 10° SSE visible
26 Feb 5.0 20:03:06 10° WNW 20:06:00 14° W 20:08:54 10° SW visible
27 Feb 5.0 19:47:09 10° WNW 19:50:22 16° W 19:53:35 10° SW visible
28 Feb 5.0 19:31:15 10° WNW 19:34:44 17° W 19:38:13 10° SW visible
01 Mar 5.0 19:15:22 10° WNW 19:19:06 18° W 19:22:50 10° SW visible
02 Mar 5.0 18:59:31 10° NW 19:03:28 20° W 19:07:25 10° SW visible
03 Mar 5.0 18:43:42 10° NW 18:47:50 21° W 18:51:58 10° SSW visible
04 Mar 5.0 18:27:53 10° NW 18:32:12 23° W 18:36:30 10° SSW visible
05 Mar 5.3 05:48:22 10° SE 05:51:55 17° E 05:55:28 10° ENE visible
05 Mar 4.9 18:12:05 10° NW 18:16:34 25° WSW 18:21:02 10° SSW visible
06 Mar 5.3 05:33:00 10° SE 05:36:17 16° E 05:39:34 10° ENE visible
